CMP435 KMCO-MPTO

Flight info

Callsign CMP435
Flight time N/A
Altitude 35000
Route FSHUN4 PLUMR DCT FEMID Q79 VAULT/N0461F360 Q79 MCLAW Y442 FUNDI/N0462F350 UM335 TIDAN/N0459F370 UM335 ARNAL DCT SEKMA OSUPA2C
Aircraft B738/M-SDGIJ1LRWY/SB1

Departure

Time 2026-05-08 07:51
Airport Orlando International Airport (KMCO)

Arrival

Time N/A
Airport Tocumen International Airport (MPTO)
Time Latitude Longitude Altitude Speed Heading
2026-05-08 07:22 28.42616 -81.30136 89 ft 0 kts 60°
2026-05-08 07:40 28.42612 -81.30144 88 ft 2 kts 60°
2026-05-08 07:40 28.42604 -81.30159 88 ft 2 kts 60°
2026-05-08 07:40 28.42596 -81.30180 88 ft 2 kts 83°
2026-05-08 07:40 28.42595 -81.30190 88 ft 2 kts 95°
2026-05-08 07:41 28.42599 -81.30207 88 ft 1 kts 116°
2026-05-08 07:41 28.42601 -81.30211 88 ft 1 kts 121°
2026-05-08 07:41 28.42592 -81.30199 88 ft 2 kts 159°
2026-05-08 07:41 28.42579 -81.30203 88 ft 0 kts 205°
2026-05-08 07:43 28.42568 -81.30209 88 ft 5 kts 205°
2026-05-08 07:43 28.42515 -81.30223 88 ft 9 kts 170°
2026-05-08 07:44 28.42476 -81.30175 89 ft 7 kts 121°
2026-05-08 07:44 28.42442 -81.30140 90 ft 6 kts 163°
2026-05-08 07:44 28.42395 -81.30137 91 ft 5 kts 188°
2026-05-08 07:44 28.42362 -81.30184 91 ft 11 kts 263°
2026-05-08 07:45 28.42359 -81.30302 89 ft 18 kts 268°
2026-05-08 07:45 28.42347 -81.30529 88 ft 24 kts 267°
2026-05-08 07:45 28.42339 -81.30638 89 ft 17 kts 265°
2026-05-08 07:45 28.42330 -81.30774 86 ft 20 kts 265°
2026-05-08 07:46 28.42318 -81.30959 85 ft 23 kts 267°
2026-05-08 07:46 28.42335 -81.31138 85 ft 22 kts 281°
2026-05-08 07:46 28.42351 -81.31320 85 ft 24 kts 269°
2026-05-08 07:46 28.42349 -81.31497 87 ft 21 kts 270°
2026-05-08 07:47 28.42348 -81.31716 88 ft 20 kts 270°
2026-05-08 07:47 28.42344 -81.31799 88 ft 12 kts 246°
2026-05-08 07:47 28.42256 -81.31835 88 ft 17 kts 187°
2026-05-08 07:47 28.42082 -81.31878 89 ft 19 kts 180°
2026-05-08 07:48 28.41994 -81.31877 89 ft 18 kts 180°
2026-05-08 07:48 28.41862 -81.31877 89 ft 20 kts 179°
2026-05-08 07:48 28.41699 -81.31883 88 ft 24 kts 185°
2026-05-08 07:48 28.41545 -81.31898 88 ft 17 kts 205°
2026-05-08 07:49 28.41544 -81.32011 88 ft 9 kts 273°
2026-05-08 07:49 28.41545 -81.32048 88 ft 6 kts 270°
2026-05-08 07:49 28.41545 -81.32094 88 ft 7 kts 270°
2026-05-08 07:49 28.41556 -81.32175 90 ft 12 kts 308°
2026-05-08 07:50 28.41629 -81.32196 91 ft 10 kts 359°
2026-05-08 07:50 28.41767 -81.32199 91 ft 45 kts 359°
2026-05-08 07:50 28.42331 -81.32205 92 ft 114 kts 359°
2026-05-08 07:50 28.43328 -81.32216 92 ft 170 kts 360°
2026-05-08 07:51 28.44572 -81.32217 543 ft 181 kts 357°
2026-05-08 07:51 28.45861 -81.32255 1139 ft 193 kts 356°
2026-05-08 07:51 28.47251 -81.32267 1702 ft 208 kts 356°
2026-05-08 07:51 28.48715 -81.32292 2313 ft 217 kts 356°
2026-05-08 07:52 28.50281 -81.32313 2750 ft 237 kts 358°
2026-05-08 07:52 28.51942 -81.32391 3490 ft 241 kts 353°
2026-05-08 07:52 28.53600 -81.32616 4329 ft 242 kts 351°
2026-05-08 07:52 28.55239 -81.33028 5078 ft 245 kts 337°
2026-05-08 07:53 28.56789 -81.33813 5851 ft 247 kts 334°
2026-05-08 07:53 28.58224 -81.34875 6548 ft 250 kts 313°
2026-05-08 07:53 28.59252 -81.36520 6896 ft 261 kts 294°
2026-05-08 07:53 28.59716 -81.38560 7314 ft 276 kts 274°
2026-05-08 07:54 28.59721 -81.40726 8120 ft 276 kts 269°
2026-05-08 07:54 28.59679 -81.42889 8897 ft 277 kts 267°
2026-05-08 07:54 28.59378 -81.45063 9604 ft 281 kts 253°
2026-05-08 07:54 28.58537 -81.47064 10332 ft 285 kts 239°
2026-05-08 07:55 28.57214 -81.48830 10709 ft 304 kts 224°
2026-05-08 07:55 28.55375 -81.50154 11132 ft 322 kts 207°
2026-05-08 07:55 28.53159 -81.50885 11471 ft 342 kts 195°
2026-05-08 07:55 28.50762 -81.51342 11787 ft 358 kts 192°
2026-05-08 07:56 28.48255 -81.51777 12365 ft 364 kts 193°
2026-05-08 07:56 28.45746 -81.52248 12996 ft 368 kts 195°
2026-05-08 07:56 28.43263 -81.52810 13748 ft 368 kts 197°
2026-05-08 07:56 28.40730 -81.53410 14437 ft 371 kts 197°
2026-05-08 07:57 28.38214 -81.54002 15106 ft 375 kts 197°
2026-05-08 07:57 28.35640 -81.54596 15782 ft 378 kts 197°
2026-05-08 07:57 28.33053 -81.55187 16421 ft 382 kts 197°
2026-05-08 07:57 28.30440 -81.55781 17028 ft 386 kts 197°
2026-05-08 07:58 28.27762 -81.56387 17622 ft 390 kts 197°
2026-05-08 07:58 28.25102 -81.56988 18228 ft 393 kts 197°
2026-05-08 07:58 28.22393 -81.57600 18831 ft 396 kts 198°
2026-05-08 07:58 28.19686 -81.58211 19396 ft 400 kts 198°
2026-05-08 07:59 28.16957 -81.58826 19970 ft 403 kts 197°
2026-05-08 07:59 28.14177 -81.59451 20553 ft 406 kts 198°
2026-05-08 07:59 28.11409 -81.60074 21051 ft 409 kts 198°
2026-05-08 07:59 28.08603 -81.60706 21596 ft 412 kts 198°
2026-05-08 08:00 28.05778 -81.61341 22068 ft 416 kts 198°
2026-05-08 08:00 28.02946 -81.61977 22600 ft 418 kts 198°
2026-05-08 08:00 28.00063 -81.62624 23057 ft 422 kts 198°
2026-05-08 08:00 27.97190 -81.63268 23547 ft 424 kts 198°
2026-05-08 08:01 27.94255 -81.63927 24006 ft 427 kts 198°
2026-05-08 08:01 27.91340 -81.64581 24378 ft 432 kts 198°
2026-05-08 08:01 27.88380 -81.65243 24880 ft 434 kts 197°
2026-05-08 08:01 27.85389 -81.65913 25353 ft 436 kts 197°
2026-05-08 08:02 27.82409 -81.66579 25761 ft 440 kts 197°
2026-05-08 08:02 27.79382 -81.67256 26227 ft 441 kts 197°
2026-05-08 08:02 27.76364 -81.67931 26578 ft 446 kts 197°
2026-05-08 08:02 27.73316 -81.68549 27045 ft 449 kts 195°
2026-05-08 08:03 27.70176 -81.68950 27325 ft 459 kts 189°
2026-05-08 08:03 27.66941 -81.68928 27778 ft 466 kts 182°
2026-05-08 08:03 27.63671 -81.68591 28097 ft 472 kts 179°
2026-05-08 08:03 27.60432 -81.68130 28475 ft 475 kts 178°
2026-05-08 08:04 27.57155 -81.67622 28822 ft 478 kts 177°
2026-05-08 08:04 27.53827 -81.67101 29143 ft 481 kts 178°
2026-05-08 08:04 27.50513 -81.66586 29566 ft 482 kts 178°
2026-05-08 08:04 27.47183 -81.66074 30127 ft 479 kts 178°
2026-05-08 08:05 27.43899 -81.65569 30718 ft 476 kts 178°
2026-05-08 08:05 27.40602 -81.65067 31135 ft 476 kts 178°
2026-05-08 08:05 27.37366 -81.64577 31668 ft 473 kts 178°
2026-05-08 08:05 27.34114 -81.64084 32093 ft 473 kts 178°
2026-05-08 08:06 27.30827 -81.63586 32539 ft 471 kts 179°
2026-05-08 08:06 27.27573 -81.63094 32935 ft 471 kts 179°
2026-05-08 08:06 27.24311 -81.62601 33452 ft 469 kts 178°
2026-05-08 08:06 27.21083 -81.62114 33811 ft 470 kts 178°
2026-05-08 08:07 27.17817 -81.61622 34306 ft 467 kts 178°
2026-05-08 08:07 27.14585 -81.61134 34710 ft 467 kts 178°
2026-05-08 08:07 27.11348 -81.60648 34979 ft 468 kts 178°
2026-05-08 08:08 27.04805 -81.59668 34988 ft 470 kts 178°
2026-05-08 08:08 26.98364 -81.58695 34989 ft 464 kts 178°
2026-05-08 08:09 26.91918 -81.57729 34989 ft 467 kts 178°
2026-05-08 08:09 26.85459 -81.56763 34988 ft 467 kts 178°
2026-05-08 08:10 26.79021 -81.55798 34989 ft 466 kts 178°
2026-05-08 08:10 26.72545 -81.54829 34992 ft 467 kts 178°
2026-05-08 08:11 26.66084 -81.53863 34991 ft 467 kts 178°
2026-05-08 08:11 26.59639 -81.52902 34994 ft 467 kts 178°
2026-05-08 08:12 26.53165 -81.51937 34992 ft 467 kts 178°
2026-05-08 08:12 26.46711 -81.50975 34993 ft 468 kts 177°
2026-05-08 08:13 26.40225 -81.50010 34992 ft 467 kts 177°
2026-05-08 08:13 26.33796 -81.49056 34992 ft 467 kts 177°
2026-05-08 08:14 26.27327 -81.48096 34990 ft 468 kts 177°
2026-05-08 08:14 26.20888 -81.47141 34988 ft 468 kts 177°
2026-05-08 08:15 26.14367 -81.46175 34989 ft 468 kts 176°
2026-05-08 08:15 26.07936 -81.44703 34986 ft 473 kts 169°
2026-05-08 08:16 26.01619 -81.42628 34987 ft 474 kts 167°
2026-05-08 08:16 25.95281 -81.40468 34988 ft 474 kts 167°
2026-05-08 08:17 25.88999 -81.38341 34988 ft 473 kts 167°
2026-05-08 08:17 25.82680 -81.36216 34985 ft 474 kts 167°
2026-05-08 08:18 25.76370 -81.34100 34989 ft 473 kts 167°
2026-05-08 08:18 25.70038 -81.31979 34988 ft 473 kts 167°
2026-05-08 08:19 25.63726 -81.29869 34986 ft 474 kts 167°
2026-05-08 08:19 25.57371 -81.27747 34987 ft 473 kts 167°
2026-05-08 08:20 25.51067 -81.25645 34987 ft 473 kts 167°
2026-05-08 08:20 25.44728 -81.23534 34984 ft 473 kts 167°
2026-05-08 08:21 25.38443 -81.21442 34980 ft 473 kts 167°
2026-05-08 08:21 25.32102 -81.19334 34976 ft 473 kts 167°
2026-05-08 08:22 25.25794 -81.17242 34972 ft 473 kts 167°
2026-05-08 08:22 25.19478 -81.15147 34970 ft 474 kts 167°
2026-05-08 08:23 25.13172 -81.13056 34971 ft 473 kts 167°
2026-05-08 08:23 25.06869 -81.10970 34968 ft 473 kts 167°
2026-05-08 08:24 25.00557 -81.08885 34970 ft 473 kts 167°
2026-05-08 08:24 24.94232 -81.06796 34968 ft 473 kts 167°
2026-05-08 08:25 24.87908 -81.04710 34972 ft 473 kts 167°
2026-05-08 08:25 24.81613 -81.02647 34976 ft 474 kts 168°
2026-05-08 08:26 24.75184 -81.01184 34979 ft 467 kts 179°
2026-05-08 08:26 24.68688 -81.01118 34981 ft 464 kts 186°
2026-05-08 08:27 24.62257 -81.01381 34977 ft 464 kts 186°
2026-05-08 08:27 24.55789 -81.01646 34972 ft 464 kts 185°
2026-05-08 08:28 24.49314 -81.01675 34968 ft 466 kts 183°
2026-05-08 08:28 24.42807 -81.01591 34967 ft 466 kts 183°
2026-05-08 08:29 24.36309 -81.01516 34967 ft 466 kts 183°
2026-05-08 08:29 24.29784 -81.01453 34967 ft 466 kts 183°
2026-05-08 08:30 24.23315 -81.01395 34967 ft 466 kts 183°
2026-05-08 08:30 24.13581 -81.01311 34967 ft 466 kts 183°
2026-05-08 08:31 24.07079 -81.01256 34967 ft 466 kts 183°
2026-05-08 08:31 24.00527 -81.01201 34967 ft 467 kts 183°
2026-05-08 08:32 23.94015 -81.01013 34967 ft 468 kts 181°
2026-05-08 08:32 23.87514 -81.00710 34974 ft 468 kts 180°
2026-05-08 08:33 23.80981 -81.00412 34979 ft 467 kts 181°
2026-05-08 08:33 23.74502 -81.00129 34985 ft 468 kts 181°
2026-05-08 08:34 23.67940 -80.99847 34979 ft 467 kts 181°
2026-05-08 08:34 23.61435 -80.99572 34983 ft 468 kts 181°
2026-05-08 08:35 23.54916 -80.99297 34986 ft 469 kts 181°
2026-05-08 08:35 23.48381 -80.99021 34987 ft 468 kts 180°
2026-05-08 08:36 23.41878 -80.98747 34988 ft 467 kts 180°
2026-05-08 08:36 23.35385 -80.98473 34989 ft 467 kts 180°
2026-05-08 08:37 23.28861 -80.98200 34989 ft 467 kts 180°
2026-05-08 08:37 23.22354 -80.97927 34989 ft 468 kts 180°
2026-05-08 08:38 23.15812 -80.97651 34988 ft 469 kts 180°
2026-05-08 08:38 23.09282 -80.97375 34988 ft 468 kts 180°
2026-05-08 08:39 23.02762 -80.97096 34989 ft 467 kts 180°
2026-05-08 08:39 22.96213 -80.96824 34987 ft 467 kts 180°
2026-05-08 08:40 22.89698 -80.96571 34988 ft 467 kts 180°
2026-05-08 08:40 22.83178 -80.96317 34988 ft 467 kts 180°
2026-05-08 08:41 22.76637 -80.96062 34987 ft 469 kts 180°
2026-05-08 08:41 22.70077 -80.95806 34987 ft 468 kts 180°
2026-05-08 08:42 22.63520 -80.95550 34984 ft 467 kts 180°
2026-05-08 08:42 22.56971 -80.95293 34984 ft 467 kts 180°
2026-05-08 08:43 22.50434 -80.95039 34982 ft 467 kts 180°
2026-05-08 08:43 22.43935 -80.94785 34980 ft 468 kts 180°
2026-05-08 08:44 22.37414 -80.94531 34978 ft 467 kts 180°
2026-05-08 08:44 22.30940 -80.94278 34976 ft 467 kts 180°
2026-05-08 08:45 22.24395 -80.94024 34973 ft 467 kts 180°
2026-05-08 08:45 22.17930 -80.93772 34971 ft 467 kts 180°
2026-05-08 08:46 22.11409 -80.93519 34971 ft 466 kts 179°
2026-05-08 08:46 22.04891 -80.93266 34968 ft 467 kts 179°
2026-05-08 08:47 21.98370 -80.93013 34966 ft 466 kts 179°
2026-05-08 08:47 21.91871 -80.92762 34968 ft 467 kts 179°
2026-05-08 08:48 21.85366 -80.92510 34970 ft 467 kts 179°
2026-05-08 08:48 21.78855 -80.92258 34970 ft 467 kts 179°
2026-05-08 08:49 21.72344 -80.92007 34967 ft 467 kts 179°
2026-05-08 08:49 21.65827 -80.91756 34967 ft 467 kts 179°
2026-05-08 08:50 21.59324 -80.91505 34961 ft 467 kts 179°
2026-05-08 08:50 21.52819 -80.91254 34958 ft 467 kts 179°
2026-05-08 08:51 21.46336 -80.91003 34959 ft 467 kts 179°
2026-05-08 08:51 21.39810 -80.90750 34957 ft 467 kts 179°
2026-05-08 08:52 21.33337 -80.90499 34956 ft 467 kts 179°
2026-05-08 08:52 21.26818 -80.90247 34953 ft 467 kts 179°
2026-05-08 08:53 21.20286 -80.89995 34949 ft 468 kts 179°
2026-05-08 08:53 21.13748 -80.89741 34947 ft 468 kts 179°
2026-05-08 08:54 21.07266 -80.89491 34950 ft 468 kts 179°
2026-05-08 08:54 21.00709 -80.89216 34946 ft 468 kts 179°
2026-05-08 08:55 20.94184 -80.88925 34948 ft 467 kts 178°
2026-05-08 08:55 20.87651 -80.88635 34947 ft 467 kts 178°
2026-05-08 08:56 20.81142 -80.88348 35005 ft 471 kts 178°
2026-05-08 08:56 20.77883 -80.88205 35452 ft 469 kts 178°
2026-05-08 08:56 20.74630 -80.88062 35947 ft 466 kts 179°
2026-05-08 08:57 20.71359 -80.87919 36300 ft 466 kts 179°
2026-05-08 08:57 20.68139 -80.87778 36682 ft 465 kts 179°
2026-05-08 08:57 20.64852 -80.87634 36936 ft 466 kts 179°
2026-05-08 08:57 20.61541 -80.87489 36946 ft 469 kts 179°
2026-05-08 08:58 20.54995 -80.87203 36946 ft 464 kts 178°
2026-05-08 08:58 20.48543 -80.86921 36946 ft 463 kts 178°
2026-05-08 08:59 20.42048 -80.86638 36946 ft 464 kts 178°
2026-05-08 08:59 20.35584 -80.86356 36946 ft 465 kts 178°
2026-05-08 09:00 20.29127 -80.86075 36946 ft 466 kts 178°
2026-05-08 09:00 20.22617 -80.85792 36946 ft 465 kts 178°
2026-05-08 09:01 20.16183 -80.85512 36946 ft 464 kts 178°
2026-05-08 09:01 20.09736 -80.85231 36946 ft 464 kts 178°
2026-05-08 09:02 20.03249 -80.84950 36947 ft 464 kts 178°
2026-05-08 09:02 19.96813 -80.84664 36947 ft 464 kts 178°
2026-05-08 09:03 19.90342 -80.84351 36948 ft 464 kts 178°
2026-05-08 09:03 19.83876 -80.84037 36950 ft 465 kts 178°
2026-05-08 09:04 19.77412 -80.83724 36949 ft 465 kts 178°
2026-05-08 09:04 19.70941 -80.83411 36948 ft 465 kts 178°
2026-05-08 09:05 19.64464 -80.83100 36946 ft 465 kts 178°
2026-05-08 09:05 19.57963 -80.82788 36949 ft 465 kts 178°
2026-05-08 09:06 19.51499 -80.82478 36945 ft 465 kts 178°
2026-05-08 09:06 19.45044 -80.82168 36948 ft 466 kts 178°
2026-05-08 09:07 19.38531 -80.81856 36948 ft 468 kts 178°
2026-05-08 09:07 19.32006 -80.81544 36946 ft 467 kts 178°
2026-05-08 09:08 19.25527 -80.81234 36946 ft 466 kts 177°
2026-05-08 09:08 19.19019 -80.80924 36945 ft 466 kts 177°
2026-05-08 09:09 19.12548 -80.80615 36947 ft 466 kts 177°
2026-05-08 09:09 19.06010 -80.80305 36946 ft 467 kts 177°
2026-05-08 09:10 18.99515 -80.79996 36945 ft 469 kts 177°
2026-05-08 09:10 18.92994 -80.79687 36946 ft 468 kts 177°
2026-05-08 09:11 18.86469 -80.79377 36945 ft 466 kts 177°
2026-05-08 09:11 18.79937 -80.79067 36939 ft 467 kts 177°
2026-05-08 09:12 18.73450 -80.78760 36928 ft 466 kts 177°
2026-05-08 09:12 18.66921 -80.78450 36925 ft 468 kts 177°
2026-05-08 09:13 18.60394 -80.78141 36926 ft 469 kts 177°
2026-05-08 09:13 18.53887 -80.77834 36926 ft 468 kts 177°
2026-05-08 09:14 18.47374 -80.77526 36926 ft 466 kts 177°
2026-05-08 09:14 18.40870 -80.77219 36925 ft 467 kts 177°
2026-05-08 09:15 18.34346 -80.76911 36926 ft 466 kts 177°
2026-05-08 09:15 18.27842 -80.76605 36926 ft 467 kts 177°
2026-05-08 09:16 18.21353 -80.76299 36925 ft 468 kts 177°
2026-05-08 09:16 18.14824 -80.75992 36926 ft 468 kts 177°
2026-05-08 09:17 18.08281 -80.75684 36927 ft 468 kts 177°
2026-05-08 09:17 18.01794 -80.75379 36925 ft 466 kts 176°